Hourly Data Report for October 23, 2016

All times are specified in Local Standard Time (LST). Add 1 hour to adjust for Daylight Saving Time where and when it is observed.

IQALUIT CLIMATE
NUNAVUT

63°44'50.000" N
68°32'40.000" W
33.50 m
2402592
71321
XFB

Download Data

Hourly Data (October 2016)
Hourly Data Report for October 23, 2016
Temp Definition
°C
Dew Point Temp Definition
°C
Rel Hum Definition
%
Wind Dir Definition
10's deg

Wind Spd Definition
km/h
Visibility Definition
km
Stn Press Definition
kPa
Hmdx Definition


Wind Chill Definition


Weather Definition


TIME
00:00 -13.6 -15.3 87 33 18   102.88   -22 LegendNANA
01:00 -13.0 -14.7 87 33 27   102.94   -23 LegendNANA
02:00 -12.9 -15.0 85 33 27   102.97   -23 LegendNANA
03:00 -14.0 -16.0 85 34 26   102.97   -24 LegendNANA
04:00 -13.9 -16.1 83 34 33   102.93   -25 LegendNANA
05:00 -13.1 -15.5 82 33 20   102.93   -22 LegendNANA
06:00 -13.3 -15.5 84 31 22   102.91   -22 LegendNANA
07:00 -13.8 -16.1 82 32 28   102.95   -24 LegendNANA
08:00 -13.8 -16.2 82 31 26   102.99   -24 LegendNANA
09:00 -13.6 -16.0 82 32 26   102.99   -24 LegendNANA
10:00 -13.1 -15.6 82 33 29   103.00   -23 LegendNANA
11:00 -12.4 -15.1 80 34 30   102.99   -23 LegendNANA
12:00 -11.3 -14.5 77 34 25   102.95   -20 LegendNANA
13:00 -10.2 -13.3 78 34 31   102.84   -20 LegendNANA
14:00 -12.3 -15.2 79 32 30   102.83   -23 LegendNANA
15:00 -13.4 -16.1 80 32 29   102.83   -24 LegendNANA
16:00 -14.5 -17.2 80 33 25   102.87   -25 LegendNANA
17:00 -14.5 -17.0 81 34 22   102.93   -24 LegendNANA
18:00 -15.5 -18.1 80 35 25   102.94   -26 LegendNANA
19:00 -14.5 -17.5 78 35 21   102.91   -24 LegendNANA
20:00 -15.6 -18.3 80 33 24   102.84   -26 LegendNANA
21:00 -14.6 -17.9 76 34 29   102.74   -25 LegendNANA
22:00 -15.6 -18.2 80 34 38   102.63   -28 LegendNANA
23:00 -16.9 -19.9 78 33 36   102.56   -29 LegendNANA

Notes on Data Quality.

Legend

  • E = Estimated
  • M = Missing
  • NA = Not Available
  • ‡ = Partner data that is not subject to review by the National Climate Archives
Date modified: